Zurück zum Katalog

METEOSAT 6 AKM

AktivGEO
NORAD 23118·ROCKET BODY·🇪🇺 EU

Gestartet Nov 20, 1993 von Guiana Space Centre

Loading…

TLE

AktuellSource: Space-Track

Epoche: Aug 29, 2026, 04:07 UTC

1 23118U 93073E   26241.17198284 -.00000290  00000-0  00000+0 0  9993
2 23118  14.1714 346.5469 0066603 112.2426 258.0934  0.99995015 47921

Verfolge METEOSAT 6 AKM in Echtzeit mit AllMySat

Download on the App Store